EHI
1 1 0 0 0 0 0 0 0 0 1 1 2 2 2 1 0 0 1 5 11 13 9 7 8 8 8 6 5 4 4 4 2 1 0 0 0 0 0 0 0 0 0 0 0 0 0 0 0
1 0 0 0 0 0 0 0 0 0 1 2 2 2 2 1 0 1 2 6 11 12 8 6 8 9 8 6 4 3 3 3 3 1 0 0 0 0 0 0 0 0 0 0 0 0 0 0 0
0 0 0 0 0 0 0 0 0 0 1 2 2 2 2 1 1 2 5 11 13 12 9 8 11 12 9 7 4 3 3 3 2 1 0 0 0 0 0 0 0 0 0 0 0 0 0 0 0
0 0 0 0 0 0 0 0 0 1 2 3 5 5 4 2 2 5 12 17 17 13 10 12 17 17 13 9 6 4 3 2 1 0 0 0 0 0 0 0 0 0 0 0 0 0 0 0 0
0 0 0 0 0 0 0 0 1 3 5 8 12 12 8 4 6 13 19 22 20 16 13 15 19 20 16 11 8 5 3 1 0 0 0 0 0 0 0 0 0 0 0 0 0 0 0 0 0
0 0 0 0 0 0 0 0 2 6 10 15 20 20 12 9 14 19 21 20 21 21 19 17 18 17 15 13 9 6 3 1 0 0 0 0 0 0 0 0 0 0 0 0 0 0 0 0 0
0 0 0 0 0 0 0 0 4 10 14 18 23 24 20 18 21 25 24 23 23 25 24 21 17 14 13 12 9 5 2 0 0 0 0 0 0 0 0 0 0 0 0 0 0 0 0 0 0
0 0 0 0 0 0 0 1 4 10 15 17 19 22 27 31 35 36 35 33 31 28 25 23 19 14 11 9 7 4 2 1 0 0 0 0 0 0 0 0 0 0 0 0 0 0 0 0 0
0 0 0 0 0 0 0 1 3 8 14 16 17 23 37 51 54 51 49 46 41 33 27 24 21 16 12 9 6 4 3 2 1 0 0 0 0 0 0 0 0 0 0 0 0 0 0 0 0
0 0 0 0 0 0 0 1 3 8 15 21 28 41 59 67 65 58 54 52 48 39 31 25 19 16 14 11 8 5 3 2 1 0 0 0 0 0 0 0 0 0 0 0 0 0 0 0 0
0 0 0 0 0 0 0 1 5 9 14 25 44 64 74 72 63 55 51 50 47 42 33 24 17 15 14 12 9 6 4 2 1 0 0 0 0 0 0 0 0 0 0 0 0 0 0 0 0
0 0 0 0 0 0 0 1 5 8 11 27 54 74 76 68 57 48 44 44 44 40 33 24 17 13 12 10 8 6 4 3 1 1 0 0 0 0 0 0 0 0 0 0 0 0 0 0 0
0 0 0 0 0 0 0 1 4 8 16 36 61 75 73 62 51 43 39 39 41 38 33 27 19 12 9 8 7 5 4 3 3 2 1 0 0 0 0 0 0 0 0 0 0 0 0 0 0
0 0 0 0 0 0 0 1 4 12 30 50 64 70 67 58 47 42 40 39 37 33 30 27 21 12 8 7 5 4 3 3 3 2 1 0 0 0 0 0 0 0 0 0 0 0 0 0 0
0 0 0 0 0 0 0 2 5 19 41 57 62 62 59 52 44 40 40 38 33 27 24 22 17 11 8 6 4 3 3 3 2 2 1 0 0 0 0 0 0 0 0 0 0 0 0 0 0
0 0 0 0 0 0 0 1 6 20 41 55 58 56 52 45 38 34 35 35 31 25 20 17 13 9 6 5 4 3 3 3 3 2 1 0 0 0 0 0 0 0 0 0 0 0 0 0 0
0 0 0 0 0 0 0 2 6 17 33 46 51 52 48 41 34 31 33 33 31 26 20 16 12 8 6 5 5 4 3 3 3 2 1 0 0 0 0 0 0 0 0 0 0 0 0 0 0
0 0 0 0 0 0 0 2 6 13 24 34 42 46 46 39 33 33 35 35 32 28 23 18 12 7 6 7 7 4 3 3 3 2 1 0 0 0 0 0 0 0 0 0 0 0 0 0 0
0 0 0 0 0 0 0 1 4 10 18 26 34 42 43 36 29 32 37 37 35 33 29 23 14 9 9 10 8 5 3 3 2 1 1 0 0 0 0 0 0 0 0 0 0 0 0 0 0
0 0 0 0 0 0 0 1 3 9 16 23 31 38 40 34 29 32 36 39 40 39 36 31 22 15 12 10 8 5 3 2 1 1 1 0 0 0 0 0 0 0 0 0 0 0 0 0 0
0 0 0 0 0 0 0 1 3 7 14 21 29 34 34 30 29 31 36 41 44 45 43 38 30 22 14 9 7 5 3 2 0 0 0 0 0 0 0 0 0 0 0 0 0 0 0 0 0
0 0 0 0 0 0 0 1 3 6 11 17 24 29 28 24 25 29 35 42 47 47 46 42 36 27 18 11 8 7 5 2 1 0 0 0 0 0 0 0 0 0 0 0 0 0 0 0 0
0 0 0 0 0 0 0 1 3 5 7 10 17 23 24 22 24 28 32 39 45 46 44 42 39 33 23 15 12 10 8 4 2 1 0 0 0 0 0 0 0 0 0 0 0 0 0 0 0
0 0 0 0 0 0 0 0 1 3 3 5 12 20 24 24 26 30 34 38 43 43 40 38 37 36 30 22 16 14 11 8 5 3 2 1 0 0 0 0 0 0 0 0 0 0 0 0 0
0 0 0 0 0 0 0 0 0 1 1 4 10 18 24 26 29 34 37 39 41 40 37 34 34 35 34 28 20 16 14 11 9 7 5 3 1 1 2 1 1 0 0 0 0 0 0 0 0
0 0 0 0 0 0 0 0 0 0 1 4 8 14 20 25 30 34 34 35 37 36 34 32 32 33 34 31 24 17 14 12 11 9 8 6 4 3 3 3 2 1 1 1 0 0 0 0 0
0 0 0 0 0 0 0 0 0 0 1 5 8 12 18 26 30 30 28 28 29 31 30 30 31 32 33 33 28 20 14 13 12 10 8 7 5 4 3 3 3 3 2 2 1 0 0 0 0
0 0 0 0 0 0 0 0 0 0 1 5 8 12 18 26 30 28 24 22 24 26 26 28 29 29 30 32 31 25 18 14 12 10 8 7 5 4 3 3 3 3 3 3 2 1 0 0 0
0 0 0 0 0 0 0 0 0 0 2 4 8 11 16 22 26 24 19 18 20 22 22 24 25 25 25 27 29 28 23 16 11 9 7 6 5 4 3 3 3 3 3 3 2 1 0 0 0
0 0 0 0 0 0 0 0 0 1 2 5 7 10 14 18 20 20 15 14 18 19 20 22 23 23 22 24 27 28 24 17 11 8 5 5 4 4 3 3 3 3 3 3 2 1 0 0 0
Wind_Speed
4 3 1 1 4 4 1 3 1 1 1 0 3 4 5 4 3 3 4 12 16 14 11 14 17 17 16 16 16 16 16 16 16 16 16 16 15 15 15 15 14 14 14 14 14 14 14 14 14
3 3 1 3 4 2 3 2 0 1 2 3 4 4 4 3 4 8 8 11 16 14 10 12 18 17 16 16 16 15 15 15 15 15 15 15 15 14 14 14 14 14 14 14 14 14 14 14 14
3 2 3 4 2 3 2 1 1 1 3 3 3 4 4 4 7 7 8 15 14 12 9 13 19 18 17 16 15 15 14 15 14 14 14 14 14 14 14 14 14 14 14 14 14 14 14 13 13
3 3 4 4 1 4 3 2 2 2 2 3 4 4 4 3 6 7 15 16 14 11 9 13 19 18 17 16 15 14 14 14 14 14 13 13 13 13 13 13 13 13 13 13 13 13 13 12 11
3 4 4 2 4 5 4 3 3 2 2 2 4 4 3 4 9 15 16 16 14 10 8 11 18 18 17 16 15 14 14 14 13 13 13 13 13 13 13 13 12 12 13 13 12 12 11 11 10
4 4 4 1 4 4 4 3 3 3 3 3 5 5 2 4 12 16 15 13 12 11 9 10 18 18 16 16 15 14 14 13 13 13 12 12 12 12 12 12 12 12 12 12 11 11 11 9 9
5 4 3 3 3 4 2 2 3 4 4 4 6 6 4 7 10 13 12 11 10 9 8 7 9 12 15 15 15 14 13 13 13 12 12 12 12 11 11 11 11 11 11 11 10 10 10 9 9
5 5 2 2 2 3 1 2 2 4 4 4 5 8 7 10 12 12 11 10 9 8 7 6 7 7 7 8 14 14 13 13 12 12 12 12 11 11 11 9 10 10 10 10 9 9 8 8 8
4 4 3 5 5 3 1 2 1 2 4 3 3 5 8 18 17 15 12 9 9 9 6 7 7 6 6 6 10 11 12 12 11 9 11 9 4 5 5 7 9 9 9 9 8 8 7 7 7
4 4 7 5 4 2 1 1 3 3 3 2 4 7 17 20 18 18 17 16 14 12 9 7 7 7 6 6 5 4 4 5 4 4 5 4 4 3 4 5 8 8 8 7 7 7 7 6 3
6 7 5 5 5 3 2 2 4 7 5 8 10 17 21 20 18 16 16 15 13 12 11 8 8 7 6 4 4 3 3 3 4 5 5 4 3 2 2 2 2 3 4 4 4 4 3 3 3
5 6 5 4 3 2 3 3 4 7 8 7 14 21 23 22 20 18 17 14 12 13 11 9 8 7 6 5 4 4 3 3 3 3 5 4 2 2 2 2 2 2 2 3 3 2 2 3 3
5 4 4 5 5 5 4 5 4 5 3 10 16 19 20 20 17 13 11 12 12 12 12 10 9 8 6 5 4 5 4 3 3 3 3 4 3 3 2 2 2 2 2 2 2 2 2 2 3
5 5 5 5 4 3 4 2 3 5 8 14 17 17 18 17 16 13 13 13 14 13 13 11 10 9 7 5 4 4 4 4 3 3 4 4 3 3 3 2 2 1 2 2 2 2 2 2 2
2 2 5 4 3 3 4 1 5 5 12 14 15 15 15 13 13 15 16 14 14 13 12 11 11 9 8 7 6 5 4 4 4 3 4 4 4 4 3 2 2 1 2 2 2 2 2 2 2
1 1 2 5 1 2 6 6 6 7 13 13 13 14 14 13 13 12 12 11 11 11 11 11 11 10 8 7 6 4 4 4 3 3 3 4 5 4 3 3 2 2 2 2 2 2 2 2 1
2 1 2 4 1 2 4 5 3 7 12 12 13 13 13 11 11 10 12 12 12 12 12 12 10 11 10 8 6 5 5 4 4 3 3 4 5 5 4 3 2 3 2 2 2 2 2 2 2
4 3 2 3 2 1 3 5 3 8 12 13 12 11 11 12 13 11 11 11 11 10 10 11 9 10 9 6 5 3 4 3 3 4 4 5 4 5 4 3 3 3 3 2 2 3 2 2 2
4 3 3 4 2 1 4 5 4 8 10 10 10 10 12 12 10 10 11 12 12 11 11 11 10 9 8 6 6 5 5 4 3 4 5 5 5 6 5 3 4 4 3 3 4 3 3 2 2
3 3 4 4 2 1 2 4 3 7 12 13 13 13 13 10 9 10 11 12 13 13 12 12 11 10 10 8 6 4 4 3 3 3 4 5 6 6 6 5 4 4 3 4 3 3 2 2 1
5 5 4 3 4 3 1 4 2 3 4 5 7 8 10 12 13 13 13 13 12 13 14 13 12 11 10 8 5 4 3 2 2 3 3 4 5 6 5 6 5 5 4 4 4 4 4 3 1
6 6 5 3 0 3 1 3 5 3 4 6 8 8 10 11 11 12 12 13 13 13 12 11 11 10 10 9 9 9 7 5 5 5 4 4 5 5 6 6 6 5 4 4 4 4 3 4 3
6 4 4 2 3 1 1 2 8 1 5 10 11 12 11 11 12 12 13 14 12 11 10 10 10 10 10 10 11 10 7 5 4 4 5 5 4 5 5 6 5 5 4 4 4 4 3 3 3
5 5 5 5 4 2 4 4 7 5 9 8 10 11 11 11 11 11 11 9 8 9 9 9 9 9 10 11 11 10 10 8 8 7 7 5 3 3 5 5 5 5 4 5 4 4 4 3 3
5 6 3 3 2 6 3 4 10 8 7 8 10 11 11 10 10 10 10 10 10 11 11 10 10 10 11 11 11 10 10 10 11 9 8 7 5 4 6 6 5 5 5 5 4 4 4 4 4
7 11 9 6 6 4 1 6 8 5 4 4 5 7 8 9 9 10 11 11 11 12 12 12 12 11 11 12 11 9 9 8 7 8 7 8 6 6 6 6 6 6 6 5 5 4 4 3 4
8 6 7 7 3 1 4 6 8 2 2 1 4 6 8 9 10 10 10 10 10 10 11 12 12 11 11 11 10 9 9 9 8 8 7 6 5 6 7 7 7 6 6 6 5 4 4 4 3
8 10 7 7 7 3 3 4 5 5 4 3 4 7 7 8 8 9 9 9 9 9 9 9 10 11 10 10 10 9 9 9 9 8 8 8 7 7 8 8 7 7 6 6 5 4 4 5 3
6 5 6 6 6 7 3 7 6 7 6 6 6 6 7 8 9 8 8 8 8 7 8 9 9 8 8 9 9 9 9 9 8 8 9 9 8 8 9 8 8 8 7 6 6 5 6 6 4
6 9 9 8 5 5 5 8 4 4 4 5 5 4 5 6 6 7 7 7 7 8 8 9 9 9 9 9 8 9 9 9 9 9 9 9 8 8 9 8 8 8 8 7 7 7 6 6 6
Wind_Direction
187 150 137 76 54 48 318 279 275 51 62 93 135 129 133 131 169 176 125 138 136 142 147 144 141 137 133 130 127 125 123 121 120 119 119 117 116 116 115 114 112 111 110 109 110 111 110 108 108
137 142 80 58 75 50 292 264 312 188 138 89 75 82 86 81 83 112 132 142 140 142 142 144 143 140 137 134 131 129 126 124 123 122 121 120 119 118 117 115 114 112 111 111 111 111 110 110 109
145 129 85 72 99 184 239 237 141 96 112 99 84 65 81 122 130 137 145 142 138 140 140 149 146 143 140 137 135 133 130 128 126 125 123 122 121 120 119 117 115 113 113 114 113 112 111 111 112
116 57 56 71 229 238 237 220 146 128 80 78 103 83 67 95 139 140 140 142 138 139 142 152 148 146 144 141 138 136 135 133 131 129 128 126 124 122 121 118 116 116 116 115 113 113 111 111 113
66 80 65 26 265 261 251 235 180 163 142 107 104 95 52 27 114 132 141 144 143 142 146 152 150 149 147 145 142 140 138 136 134 133 132 130 127 124 122 120 118 117 117 116 114 112 110 109 112
64 72 89 255 269 269 254 205 168 161 137 126 114 102 63 116 130 142 144 144 146 145 145 150 153 152 151 149 147 144 142 140 137 137 136 133 130 127 125 124 122 120 118 117 115 113 109 106 110
111 109 160 224 272 289 270 156 153 154 148 158 127 114 119 146 144 142 140 139 142 144 143 146 151 152 154 153 151 149 146 143 142 142 140 137 135 132 129 127 125 123 121 119 116 114 109 105 112
129 111 156 233 234 267 302 72 98 145 148 128 129 144 162 163 145 135 133 137 141 144 143 142 142 143 146 153 156 154 151 149 147 147 144 141 139 135 131 127 129 127 125 122 119 114 108 103 114
103 89 204 217 201 239 359 69 69 96 119 129 132 152 152 145 143 141 143 146 152 155 149 145 143 140 139 148 162 157 155 155 151 150 147 134 108 110 121 133 135 132 129 125 119 114 107 99 108
113 163 222 216 198 203 276 177 160 129 141 136 92 112 134 147 153 158 162 165 168 168 165 154 150 146 146 159 147 137 140 141 131 124 120 106 102 109 119 140 137 133 127 120 112 104 96 88 87
167 200 225 233 223 215 228 223 165 148 200 202 170 151 151 158 163 168 171 171 171 169 169 163 158 152 152 146 138 127 119 118 117 118 116 113 103 98 92 90 105 103 104 86 86 78 76 91 101
188 236 226 241 216 209 208 198 183 190 217 185 160 155 159 166 173 176 175 172 168 170 173 166 160 155 153 144 141 133 131 130 130 129 130 125 119 113 110 98 89 81 83 88 81 83 85 97 110
220 257 240 242 258 237 217 209 204 225 195 136 143 156 168 173 176 175 172 169 169 174 174 171 165 162 156 146 152 149 143 144 142 139 144 144 141 142 133 121 105 102 99 101 100 98 101 101 109
221 233 267 279 270 246 196 231 176 225 143 141 152 165 175 178 175 171 172 176 178 178 177 172 171 167 159 159 159 152 149 145 145 154 162 158 150 149 145 138 128 124 121 116 116 117 113 108 115
249 274 308 285 246 228 134 265 225 183 148 153 164 171 176 180 179 183 182 180 180 179 176 175 174 168 166 165 167 158 155 153 161 166 167 166 160 159 155 151 152 151 135 125 102 87 80 97 110
79 94 291 289 230 185 145 229 239 165 158 166 172 176 179 185 187 187 182 177 177 176 176 179 180 173 173 170 166 158 160 161 166 165 168 173 170 164 157 159 166 152 136 125 118 106 93 91 106
42 159 227 295 266 145 162 232 230 169 169 176 179 182 184 184 187 188 184 180 179 180 178 179 179 175 176 170 164 161 161 165 166 165 172 177 173 166 158 165 162 148 137 136 144 113 118 121 121
202 192 211 244 281 121 215 247 224 182 182 187 185 183 183 191 194 187 183 180 179 181 180 181 180 175 168 159 151 150 156 165 164 172 180 176 172 166 158 162 160 152 140 137 130 120 100 110 126
172 178 246 257 263 247 246 258 240 189 189 190 187 184 189 198 189 178 180 179 179 181 179 182 181 175 167 165 168 168 178 176 173 179 180 179 174 166 162 166 158 158 158 159 146 125 109 95 110
204 235 261 295 326 229 269 280 257 193 198 196 192 191 192 185 177 178 180 182 184 184 184 184 183 180 178 177 172 168 164 164 176 179 175 180 177 171 173 166 166 165 152 147 151 134 122 108 118
212 207 220 250 336 1 3 325 290 244 209 202 198 194 193 191 188 185 186 187 185 187 187 189 185 182 179 169 154 140 121 107 149 171 180 186 183 178 172 170 166 167 162 166 168 154 145 144 123
229 217 199 208 63 295 56 288 280 226 212 209 205 200 201 196 190 187 187 189 191 191 188 185 182 178 175 168 167 168 172 178 187 178 181 177 180 179 175 170 170 167 167 168 174 164 151 143 149
205 187 185 191 176 265 311 189 279 202 220 224 213 208 206 196 188 188 191 193 190 183 180 179 174 176 175 175 178 178 179 176 165 162 171 176 175 180 178 170 166 167 170 173 169 160 156 153 156
164 89 59 52 88 232 231 175 266 227 217 219 211 208 204 195 186 184 186 178 172 170 173 175 174 180 179 180 181 183 179 170 165 174 180 182 174 176 180 173 170 171 170 171 173 169 165 164 155
136 106 53 18 37 240 235 185 244 245 231 217 205 204 200 189 182 174 172 173 173 174 175 177 181 185 185 186 187 186 183 179 180 181 183 180 179 186 191 181 176 175 175 171 165 165 167 168 164
171 147 158 179 201 248 222 222 249 263 264 236 209 194 185 179 178 176 178 176 179 180 178 179 185 189 186 188 190 187 184 184 187 183 180 185 190 190 183 180 180 178 174 171 165 164 171 169 171
144 175 164 131 148 175 260 275 299 291 303 196 176 173 179 180 178 179 177 175 179 183 185 185 187 189 189 188 186 187 189 188 186 183 181 183 184 183 179 180 181 179 173 169 165 169 171 167 175
148 147 117 132 149 205 265 261 249 255 242 203 180 180 180 176 175 175 177 179 180 182 183 183 187 189 188 186 189 191 193 193 187 180 184 184 183 178 175 180 181 178 174 171 168 167 169 167 174
120 122 124 130 155 154 197 259 231 222 214 202 201 191 181 177 176 177 179 178 175 174 176 180 183 182 185 189 192 190 192 190 187 188 190 187 182 180 181 182 180 179 177 174 173 177 172 174 177
153 159 145 149 186 167 163 255 274 212 209 189 188 189 179 173 173 173 170 165 168 174 178 183 185 188 191 190 189 191 189 186 190 194 193 187 187 187 185 181 180 183 181 178 180 184 182 181 183